[[{"header":{"parameterUnit":"m.s-1","parameterCategory":1,"la1":30.2991,"la2":30.254,"lo1":-89.0895,"lo2":-89.0444,"dy":0.0017,"dx":0.0017,"nx":28,"ny":28,"refTime":"2023-09-12T21:00:00:Z","depth":0,"parameterNumber":2,"parameterNumberName":"U-component_of_WINDS"},"data":[0,0,0,0,0,0,0,0,0,0,0,0,0,0,0,0,0,0,0,0,0,0,0,0,0,0,0,0,0,0,0,0,0,0,0,0,0,0,0,0,0,0,0,0,0,0,0,0,0,0,0,0,0,0,0,0,0,0,3.8589,3.859,0,3.8734,3.8736,3.8738,3.8669,3.8665,3.8661,3.8658,3.8808,3.8815,3.8822,0,0,0,0,0,0,0,0,0,0,0,0,0,3.825,3.8257,3.8589,3.859,3.8592,3.8734,3.8736,3.8738,3.8669,3.8665,3.866,3.8656,3.8805,3.8814,3.8823,0,0,0,0,0,0,0,0,0,0,0,0,0,3.8397,3.8259,3.8588,3.8575,3.8575,3.8734,3.8736,3.8739,3.867,3.8665,3.8659,3.8654,3.8802,3.8813,3.8824,3.9004,0,0,3.8858,3.8863,0,0,0,0,0,0,0,0,3.8389,3.8409,3.8575,3.8576,3.8577,3.8677,3.8672,3.8828,3.8672,3.8634,3.8658,3.8651,3.8769,3.8782,3.8822,3.9012,3.9018,3.8859,3.8866,3.8871,3.8874,0,0,0,0,0,0,0,3.8379,3.8403,3.8646,3.8578,3.8579,3.8561,3.8576,3.8701,3.8731,3.8637,3.8632,3.865,3.8768,3.8811,3.8825,3.902,3.8859,3.8869,3.8876,3.888,3.9363,3.9368,0,0,0,0,0,0,3.8369,3.8395,3.8642,3.8651,3.8467,3.8572,3.8589,3.8651,3.8729,3.8736,3.8655,3.8647,3.8795,3.8812,3.883,3.9045,3.8871,3.8881,3.8888,3.9357,3.9364,3.9371,0,0,0,0,0,0,3.8362,3.8392,3.8636,3.8521,3.8551,3.8584,3.8654,3.8657,3.87,3.8743,3.8748,3.8694,3.8791,3.8814,3.8961,3.9049,3.8886,3.8897,3.9349,3.9359,3.9367,3.9477,0,0,0,0,0,0,3.8352,3.8389,3.8459,3.8524,3.8558,3.8765,3.866,3.8663,3.8719,3.8709,3.8781,3.8787,3.8789,3.8945,3.8972,3.9062,3.8905,3.9342,3.9354,3.9364,3.9466,3.9489,3.9508,0,0,0,0,0,3.8341,3.8484,3.8462,3.8493,3.8645,3.877,3.879,3.8788,3.8726,3.8796,3.8823,3.8785,3.9035,3.896,3.8991,3.9085,3.9336,3.935,3.9364,3.9456,3.9484,3.9508,0,0,0,0,0,0,3.843,3.8493,3.8469,3.8638,3.8699,3.8758,3.8846,3.8819,3.8899,3.8887,3.8882,3.8899,3.905,3.9082,3.8998,3.9262,3.9176,3.9197,3.9236,3.9263,3.9284,3.9273,3.8915,0,0,0,0,0,3.8469,3.8565,3.8615,3.8759,3.8791,3.8814,3.8868,3.8862,3.8925,3.8951,3.8989,3.9052,3.9144,3.9206,3.9293,3.947,3.9484,3.9549,3.9571,3.9588,3.9606,3.97,3.9729,3.9416,3.9416,3.9415,0,0,3.8551,3.8597,3.8659,3.8778,3.8825,3.8925,3.8836,3.8946,3.9019,3.8967,3.9108,3.9138,3.9208,3.937,3.9443,3.9401,3.9695,3.9606,3.9619,3.9628,3.9717,3.9747,3.9773,3.9425,3.9423,3.9422,0,0,3.8751,3.8797,3.8921,3.8969,3.904,3.9054,3.9084,3.9147,3.9165,3.9305,3.9268,3.9356,3.9516,3.9566,3.9613,3.9831,3.9798,3.986,3.9972,4.0063,4.0088,4.011,4.0186,4.0214,3.9877,3.9878,3.9878,0,3.8845,3.8993,3.8989,3.9101,3.9154,3.9111,3.9236,3.9283,3.938,3.9417,3.9369,3.9567,3.9611,3.9784,3.9837,3.9877,3.991,3.9852,4.0085,4.0107,4.0127,4.02,4.0229,3.9884,3.9884,3.9883,3.9882,0,3.9104,3.9207,3.9299,3.9392,3.9456,3.9575,3.9587,3.9652,3.964,3.9658,3.9801,3.9852,3.9949,3.9989,3.9979,4.016,4.0131,4.0085,3.9997,4.0164,4.0232,4.026,3.9894,3.9892,3.989,3.9888,0,0,3.9366,3.9453,3.9487,3.9528,3.9602,3.9682,3.9798,3.9892,3.9947,4.0015,4.0111,4.0247,4.0203,4.0256,4.0251,4.0331,4.0499,4.0274,4.0275,4.0313,4.0699,4.0734,4.0766,4.0477,4.0482,4.0487,4.0693,0,3.957,3.9773,3.9771,3.9958,4.0053,4.0012,4.0113,4.0169,4.0189,4.0272,4.0294,4.039,4.0326,4.0357,4.0435,4.0462,4.0576,4.0447,4.0566,4.057,4.0549,4.0802,4.0839,4.1032,4.072,4.0724,4.0728,0,3.9837,3.9912,4.0109,4.0167,4.0207,4.0298,4.0382,4.0462,4.0525,4.0534,4.0592,4.0574,4.0691,4.0601,4.0761,4.0673,4.0722,4.0742,4.0749,4.076,4.0659,4.0819,4.1093,4.1122,4.077,4.0767,4.0764,0,4.0007,4.0157,4.0293,4.033,4.0402,4.0467,4.05,4.0557,4.0613,4.0687,4.0722,4.081,4.0857,4.0925,4.093,4.0864,4.1091,4.1002,4.1101,4.1101,4.1151,4.1147,4.1436,4.1184,4.1183,4.1183,4.1182,0,4.0236,4.0357,4.037,4.0454,4.0589,4.0585,4.0718,4.0745,4.0796,4.0884,4.0855,4.0938,4.094,4.1025,4.103,4.1161,4.1183,4.1193,4.1193,4.1195,4.1194,4.1227,4.1213,4.119,4.1189,4.1187,4.1186,0,4.0448,4.0462,4.0608,4.0664,4.068,4.0777,4.0825,4.0904,4.092,4.1032,4.1058,4.1084,4.1183,4.1194,4.131,4.1313,4.147,4.1456,4.1449,4.1447,4.1545,4.1535,4.1864,4.1906,4.1627,4.163,4.1632,0,4.0593,4.0685,4.075,4.0807,4.0843,4.0935,4.0991,4.099,4.105,4.1127,4.1197,4.1292,4.1368,4.1527,4.1556,4.1643,4.1631,4.174,4.1644,4.1643,4.1631,4.1625,4.1633,4.1758,4.1761,4.1764,4.1766,0,4.0848,4.085,4.0932,4.1016,4.1084,4.1151,4.1213,4.1261,4.1268,4.1336,4.1436,4.1495,4.1611,4.1705,4.1791,4.1825,4.1797,4.1796,4.1823,4.1826,4.1818,4.1822,4.1499,4.1788,4.1786,4.1784,4.1783,4.1782,4.1031,4.111,4.1168,4.1259,4.1306,4.1364,4.1441,4.1467,4.1549,4.1643,4.1638,4.1747,4.1806,4.1918,4.1958,4.2043,4.2007,4.2047,4.2057,4.2066,4.2075,4.1805,4.2058,4.2058,4.2057,4.2057,4.2056,0,4.1283,4.1318,4.1402,4.149,4.1562,4.1528,4.1595,4.1657,4.1754,4.181,4.1885,4.1998,4.2089,4.2125,4.2213,4.2275,4.2264,4.2298,4.2293,4.2301,4.2103,4.207,4.2305,4.2305,4.2305,4.2305,4.2305,4.2305,4.1423,4.1555,4.1563,4.1717,4.1751,4.1857,4.1898,4.1951,4.1996,4.2124,4.2199,4.2221,4.2269,4.236,4.2442,4.245,4.2483,4.2523,4.2525,4.234,4.2315,4.2291,4.226,4.253,4.2531,4.2715,4.2717,4.2718]},{"header":{"parameterUnit":"m.s-1","parameterCategory":1,"la1":30.2991,"la2":30.254,"lo1":-89.0895,"lo2":-89.0444,"dy":0.0017,"dx":0.0017,"nx":28,"ny":28,"refTime":"2023-09-12T21:00:00:Z","depth":0,"parameterNumber":3,"parameterNumberName":"V-component_of_WINDS"},"data":[0,0,0,0,0,0,0,0,0,0,0,0,0,0,0,0,0,0,0,0,0,0,0,0,0,0,0,0,0,0,0,0,0,0,0,0,0,0,0,0,0,0,0,0,0,0,0,0,0,0,0,0,0,0,0,0,0,0,-0.3643,-0.3643,0,-0.3654,-0.3654,-0.3654,-0.3676,-0.3676,-0.3677,-0.3677,-0.3687,-0.3687,-0.3687,0,0,0,0,0,0,0,0,0,0,0,0,0,-0.3639,-0.3638,-0.3642,-0.3643,-0.3643,-0.3654,-0.3654,-0.3654,-0.3676,-0.3676,-0.3677,-0.3677,-0.3687,-0.3687,-0.3687,0,0,0,0,0,0,0,0,0,0,0,0,0,-0.3644,-0.3638,-0.3642,-0.3655,-0.3656,-0.3654,-0.3654,-0.3654,-0.3676,-0.3676,-0.3677,-0.3678,-0.3687,-0.3687,-0.3687,-0.3673,0,0,-0.3686,-0.3686,0,0,0,0,0,0,0,0,-0.3644,-0.3644,-0.3653,-0.3654,-0.3655,-0.3664,-0.3657,-0.3661,-0.3676,-0.3668,-0.3677,-0.3678,-0.3679,-0.3679,-0.368,-0.3673,-0.3674,-0.3686,-0.3686,-0.3686,-0.3686,0,0,0,0,0,0,0,-0.3643,-0.3644,-0.3647,-0.3653,-0.3655,-0.366,-0.3661,-0.3657,-0.367,-0.3669,-0.3671,-0.3672,-0.368,-0.368,-0.3681,-0.3674,-0.3686,-0.3686,-0.3686,-0.3686,-0.3659,-0.3658,0,0,0,0,0,0,-0.3641,-0.3643,-0.3647,-0.3647,-0.3651,-0.3659,-0.3661,-0.3661,-0.367,-0.3672,-0.3671,-0.3673,-0.368,-0.3681,-0.3681,-0.3666,-0.3686,-0.3686,-0.3686,-0.3659,-0.3658,-0.3658,0,0,0,0,0,0,-0.3641,-0.3641,-0.3646,-0.3646,-0.3647,-0.3659,-0.3658,-0.3661,-0.3661,-0.3672,-0.3674,-0.367,-0.3681,-0.3681,-0.3675,-0.3667,-0.3686,-0.3686,-0.366,-0.3659,-0.3658,-0.3636,0,0,0,0,0,0,-0.3641,-0.3641,-0.3636,-0.3646,-0.3647,-0.364,-0.3658,-0.366,-0.3661,-0.3663,-0.3671,-0.3672,-0.3681,-0.3676,-0.3675,-0.3667,-0.3685,-0.3661,-0.3659,-0.3658,-0.3638,-0.3635,-0.3632,0,0,0,0,0,-0.3641,-0.3628,-0.3636,-0.3636,-0.3641,-0.364,-0.364,-0.3651,-0.366,-0.3655,-0.3662,-0.3672,-0.3668,-0.3675,-0.3675,-0.3666,-0.3661,-0.366,-0.3658,-0.3639,-0.3635,-0.3632,0,0,0,0,0,0,-0.3616,-0.363,-0.3638,-0.3628,-0.3633,-0.3643,-0.3637,-0.3647,-0.3648,-0.365,-0.3663,-0.3665,-0.3657,-0.3661,-0.3668,-0.3654,-0.3666,-0.3665,-0.3652,-0.3648,-0.3646,-0.3644,-0.3685,0,0,0,0,0,-0.361,-0.3608,-0.362,-0.3611,-0.3613,-0.3625,-0.3625,-0.3633,-0.3638,-0.364,-0.3646,-0.365,-0.365,-0.365,-0.365,-0.3639,-0.3641,-0.3633,-0.3631,-0.3628,-0.3626,-0.3622,-0.3619,-0.3653,-0.3653,-0.3653,0,0,-0.3596,-0.3604,-0.3602,-0.3606,-0.3611,-0.3609,-0.3626,-0.3623,-0.3622,-0.3639,-0.3634,-0.364,-0.3645,-0.3637,-0.3634,-0.364,-0.3618,-0.3626,-0.3624,-0.3624,-0.3621,-0.3617,-0.3615,-0.3652,-0.3653,-0.3653,0,0,-0.3571,-0.3576,-0.357,-0.3574,-0.3582,-0.359,-0.3588,-0.3598,-0.3602,-0.3598,-0.3612,-0.3611,-0.361,-0.3613,-0.3615,-0.3594,-0.3604,-0.3594,-0.3579,-0.3575,-0.3572,-0.357,-0.3563,-0.356,-0.3592,-0.3592,-0.3592,0,-0.3553,-0.3551,-0.3565,-0.3562,-0.3564,-0.3581,-0.3574,-0.3578,-0.3585,-0.3586,-0.3593,-0.3594,-0.3598,-0.3592,-0.3587,-0.3588,-0.3587,-0.3592,-0.3571,-0.3569,-0.3567,-0.3561,-0.3558,-0.3591,-0.3591,-0.3591,-0.3591,0,-0.3529,-0.3528,-0.3522,-0.3529,-0.353,-0.3525,-0.3539,-0.3539,-0.3548,-0.3555,-0.3551,-0.3558,-0.3561,-0.356,-0.3568,-0.3556,-0.356,-0.3569,-0.3581,-0.3562,-0.3557,-0.3554,-0.3589,-0.359,-0.359,-0.359,0,0,-0.3486,-0.3503,-0.3501,-0.3505,-0.3515,-0.3514,-0.3511,-0.3515,-0.3515,-0.3519,-0.3517,-0.3517,-0.3527,-0.3529,-0.3538,-0.3534,-0.3518,-0.3544,-0.3545,-0.3539,-0.3506,-0.3499,-0.3496,-0.3525,-0.3525,-0.3524,-0.3506,0,-0.3463,-0.3458,-0.3472,-0.3464,-0.3463,-0.3481,-0.3478,-0.3484,-0.3492,-0.3493,-0.3501,-0.3501,-0.3513,-0.3515,-0.3512,-0.3521,-0.3512,-0.3522,-0.3523,-0.3523,-0.3521,-0.3492,-0.3484,-0.3466,-0.3503,-0.3503,-0.3503,0,-0.3434,-0.3439,-0.3431,-0.3444,-0.3444,-0.3442,-0.3447,-0.3448,-0.3456,-0.3462,-0.3465,-0.3477,-0.3475,-0.3487,-0.3485,-0.3492,-0.3494,-0.3498,-0.3498,-0.3498,-0.3511,-0.3492,-0.346,-0.3458,-0.3499,-0.3499,-0.35,0,-0.3404,-0.3409,-0.3405,-0.3408,-0.3423,-0.3421,-0.3427,-0.3435,-0.3437,-0.3442,-0.3444,-0.3448,-0.345,-0.3454,-0.3466,-0.3474,-0.3463,-0.3476,-0.3468,-0.3468,-0.3464,-0.3464,-0.3432,-0.3465,-0.3465,-0.3465,-0.3465,0,-0.3377,-0.3371,-0.3392,-0.339,-0.3385,-0.3401,-0.3395,-0.3403,-0.3411,-0.3411,-0.3426,-0.3426,-0.3442,-0.3444,-0.3454,-0.3451,-0.3452,-0.3457,-0.3459,-0.3455,-0.3454,-0.3456,-0.3457,-0.3465,-0.3465,-0.3465,-0.3465,0,-0.3342,-0.3355,-0.3353,-0.3368,-0.3371,-0.3367,-0.338,-0.3379,-0.3388,-0.3388,-0.3389,-0.3404,-0.3407,-0.342,-0.3425,-0.3432,-0.3426,-0.3431,-0.3423,-0.3425,-0.3416,-0.3417,-0.3384,-0.3381,-0.3416,-0.3415,-0.3415,0,-0.3323,-0.3319,-0.3334,-0.3336,-0.3342,-0.3343,-0.3346,-0.3362,-0.3365,-0.3375,-0.3373,-0.3377,-0.3381,-0.3385,-0.3396,-0.3401,-0.3406,-0.3395,-0.3407,-0.3404,-0.3407,-0.3407,-0.3407,-0.3392,-0.3391,-0.3391,-0.3391,0,-0.3288,-0.3295,-0.3299,-0.3306,-0.3309,-0.3315,-0.3321,-0.3322,-0.334,-0.3342,-0.3346,-0.3349,-0.3356,-0.336,-0.3367,-0.3374,-0.3385,-0.3387,-0.3385,-0.3381,-0.3377,-0.3379,-0.3416,-0.3387,-0.3388,-0.3388,-0.3388,-0.3388,-0.326,-0.3259,-0.327,-0.3274,-0.3281,-0.3288,-0.3288,-0.3298,-0.3302,-0.3309,-0.3319,-0.3321,-0.3332,-0.3343,-0.3348,-0.3351,-0.3357,-0.3355,-0.3354,-0.3353,-0.3351,-0.3377,-0.3352,-0.3352,-0.3352,-0.3352,-0.3353,0,-0.3226,-0.3235,-0.3239,-0.3249,-0.3252,-0.3264,-0.3273,-0.3275,-0.3278,-0.3286,-0.3291,-0.3296,-0.3301,-0.3314,-0.332,-0.332,-0.3325,-0.3321,-0.3321,-0.3322,-0.3345,-0.3346,-0.3316,-0.3316,-0.3316,-0.3316,-0.3316,-0.3316,-0.3209,-0.3208,-0.3217,-0.322,-0.3228,-0.3232,-0.3236,-0.3242,-0.325,-0.3255,-0.3259,-0.3268,-0.3279,-0.3287,-0.3292,-0.3296,-0.3297,-0.3291,-0.3297,-0.3317,-0.3321,-0.3324,-0.3325,-0.3291,-0.3291,-0.3274,-0.3274,-0.3274]}]]